Showing default

OT-FOREST-3 BJOERNTBW, 62682

Orbit data source: Space-Track

OT-FOREST-3 BJOERNTBW, 62682 is a payload satellite owned by OroraTech (DE) in SSO that was launched on Tue, 14 Jan 2025 UTC via an FALCON 9 launch vehicle from the Air Force Western Test Range (AFWTR). Payload-class satellites include a variety of spacecraft equipped with specific instruments for various scientific and technological missions. These include communications satellites like Starlink; space stations such as the ISS; scientific satellites like the Hubble; Earth observation satellites from companies like Planet Labs, Umbra, and HawkEye 360; GPS; miniature CubeSats for education and research; and military/defense satellites.

Loading next visibility...
Identifier
62682, 2025-009CB
Orbit
SSO
Country
Flag of DEDE / GER
Related business
Manufacturer
ORORA?
Mission
Operational Commercial Imaging
Bus & Motor
CUBESAT 8U, Unknown motor
Mass
~15 kg wet, ~15 kg dry
Launch date (UTC)
2025-01-14 (1 year ago)
Launch vehicle
FALCON 9
Launch site
Air Force Western Test Range (AFWTR)
Object type
Payload
Rocket body
Debris
Shape & HBR
Box, 0.2 m
Radar Cross Section
0.100 m², Small (<0.1 m²)

Expand to show TLE details & history
Last TLE update: 10 hours ago

TLE from 10 hours ago
0 OT-FOREST-3 BJOERNTBW
1 62682U 25009CB  26126.48621538  .00005770  00000-0  23894-3 0  9992
2 62682  97.3902 206.5112 0006476 123.6550 236.5306 15.24291545130083
Epoch: 2026-05-06T11:40Z
TLE epoch observation values (Epoch: 2026-05-06T11:40:09.008Z)
Latitude
-0.00005°
Longitude
167.12766°
Altitude
498.467 km
Speed
7.614 km/s
True Right ascension
13h 46m 02s
True Declination
0° 00' 00"
Sunlit
Object was in full shadow at epoch
Visualization orbit readout
Latitude
Unknown
Longitude
Unknown
Altitude
Unknown
Speed
Unknown
Apparent Right ascension
Unknown
Apparent Declination
Unknown
Sunlit
N/A
Visualization observer readout
Local Sidereal Time
05:08:51
Azimuth
Unknown
Elevation
Unknown
Doppler factor
Unknown
Orbital elements
Apogee altitude
494.321 km
Perigee altitude
485.425 km
Semi-major axis
6,868.01 km
Eccentricity
0.00065
Inclination
97.3902°
RAAN
206.5112°
Arg. of periapsis
123.655°
True anomaly
236.46872°
Mean anomaly
236.5306°
Eccentric anomaly
236.49966°
Mean motion
3.81326 °/min
Orbital period
94.41 mins
BSTAR
0.00023894
Loading maneuver chart data...
Computing Atmospheric mass density...
Loading historical data...
Loading historical data...
Loading historical data...
Loading historical data...
Loading historical data...
Loading historical data...
Loading historical data...

Documentation

Showing up to 5 results
|